Location: Unspecified
(44.0704°N, 88.6889°W)
Time: 12:20:19
(UTC+02:00)

Transit 2A - Pass Details

Date: 21 June 2019
Orbit: 597 x 962 km, 66.7° (Epoch: 24 August)

Event Time Altitude Azimuth Distance (km) Brightness Sun altitude
Rises 09:40:44 0° 241° (WSW) 3,627 - -18.4°
Reaches altitude 10° 09:43:33 10° 251° (WSW) 2,693 - -18.2°
Exits shadow 09:44:28 14° 255° (WSW) 2,416 8.2 -18.1°
Maximum altitude 09:49:14 34° 314° (NW) 1,537 7.7 -17.7°
Drops below altitude 10° 09:54:50 10° 18° (NNE) 2,637 10.0 -17.3°
Sets 09:57:35 0° 28° (NNE) 3,542 11.3 -17.0°
